Home   Weather   42°02'N, 92°54'W   Past weeks
Flag for USA

Past Weather in 42°02'N, 92°54'W, USA — Yesterday and Last 2 Weeks

Now
72 °F

Mostly cloudy.


Feels Like: 67 °F
Forecast: 81 / 62 °F
Wind: 5 mph from Northeast

Location: Newton Municipal

Current Time: Aug 18, 2019 at 11:42:16 pm

Latest Report: Aug 18, 2019 at 11:15 pm


Visibility: 10 mi

Pressure: 29.93 "Hg

Humidity: 94%

Dew Point: 70 °F

Location of 42°02'N, 92°54'WLocation

Past Weather in 42°02'N, 92°54'W — Graph

°F

42°02'N, 92°54'W Temperature Yesterday

Maximum temperature yesterday: 82 °F (at 3:15 pm)
Minimum temperature yesterday: 63 °F (at 2:35 am)
Average temperature yesterday: 72 °F

High & Low Weather Summary for the Past Weeks

 TemperatureHumidityPressure
High86 °F (Aug 5, 3:15 pm)100% (Aug 4, 3:55 am)30.10 "Hg (Aug 4, 3:55 am)
Low55 °F (Aug 9, 6:15 am)45% (Aug 9, 12:35 pm)29.69 "Hg (Aug 18, 3:15 am)
Average72 °F83%29.93 "Hg
* Reported Aug 3 10:15 pm — Aug 18 10:35 pm, 42°02'N, 92°54'W. Weather by CustomWeather, © 2019

Note: Actual official high and low records may vary slightly from our data, if they occured in-between our weather recording intervals... More about our weather records

Advertising

42°02'N, 92°54'W Weather History for the Previous 24 Hours

Scroll right to see more
 ConditionsComfort  
Time TempWeatherWind HumidityBarometerVisibility
10:35 pm
Sun, Aug 18
72 °FMostly cloudy.5 mph94%29.92 "Hg10 mi
10:15 pm72 °FMostly cloudy.6 mph94%29.91 "Hg10 mi
9:55 pm72 °FPassing clouds.5 mph94%29.91 "Hg10 mi
9:35 pm72 °FPassing clouds.5 mph94%29.90 "Hg10 mi
9:15 pm73 °FPassing clouds.7 mph94%29.89 "Hg10 mi
8:55 pm73 °FClear.7 mph94%29.89 "Hg10 mi
8:35 pm73 °FPassing clouds.5 mph94%29.88 "Hg10 mi
8:15 pm73 °FOvercast.5 mph94%29.88 "Hg10 mi
7:35 pm75 °FMostly cloudy.5 mph89%29.87 "Hg10 mi
7:15 pm75 °FMostly cloudy.7 mph89%29.87 "Hg10 mi
6:55 pm75 °FMostly cloudy.6 mph89%29.87 "Hg9 mi
6:35 pm75 °FMostly cloudy.6 mph94%29.86 "Hg10 mi
6:15 pm77 °FMore clouds than sun.6 mph83%29.86 "Hg10 mi
5:55 pm77 °FMostly cloudy.6 mph83%29.86 "Hg10 mi
5:35 pm77 °FMostly cloudy.7 mph89%29.85 "Hg10 mi
5:15 pm77 °FBroken clouds.7 mph83%29.85 "Hg10 mi
4:55 pm79 °FMostly cloudy.No wind79%29.85 "Hg10 mi
4:35 pm81 °FOvercast.No wind74%29.85 "Hg10 mi
4:15 pm81 °FMore clouds than sun.No wind74%29.84 "Hg10 mi
3:55 pm81 °FCloudy.3 mph74%29.84 "Hg10 mi
3:35 pm81 °FBroken clouds.5 mph74%29.84 "Hg10 mi
3:15 pm82 °FPassing clouds.8 mph70%29.84 "Hg10 mi
2:55 pm82 °FSunny.7 mph66%29.84 "Hg10 mi
2:35 pm82 °FSunny.7 mph70%29.84 "Hg10 mi
2:15 pm81 °FSunny.9 mph70%29.84 "Hg10 mi
1:55 pm81 °FSunny.9 mph70%29.84 "Hg10 mi
1:35 pm79 °FSunny.9 mph79%29.84 "Hg10 mi
12:55 pm77 °FSunny.7 mph79%29.83 "Hg10 mi
12:35 pm77 °FSunny.9 mph79%29.83 "Hg10 mi
12:15 pm75 °FSunny.7 mph78%29.82 "Hg10 mi
11:55 am73 °FSunny.No wind83%29.81 "Hg10 mi
11:35 am73 °FSunny.No wind83%29.81 "Hg10 mi
11:15 am70 °FSunny.No wind88%29.81 "Hg10 mi
10:55 am68 °FSunny.5 mph94%29.81 "Hg10 mi
10:35 am66 °FSunny.6 mph100%29.81 "Hg10 mi
10:15 am66 °FSunny.8 mph100%29.81 "Hg10 mi
9:55 am66 °FSunny.10 mph94%29.82 "Hg10 mi
9:35 am64 °FPassing clouds.7 mph100%29.84 "Hg10 mi
9:15 am64 °FBroken clouds.6 mph100%29.86 "Hg10 mi
8:35 am64 °FBroken clouds.12 mph100%29.88 "Hg7 mi
8:15 am64 °FFog.17 mph94%29.86 "Hg6 mi
7:55 am63 °FFog.17 mph100%29.85 "Hg2 mi
7:35 am64 °FFog.14 mph94%29.88 "Hg2 mi
7:15 am64 °FFog.12 mph94%29.87 "Hg4 mi
6:55 am63 °FFog.12 mph100%29.83 "Hg4 mi
6:35 am63 °FFog.12 mph100%29.83 "Hg5 mi
6:15 am63 °FFog.10 mph100%29.84 "Hg5 mi
5:55 am63 °FFog.6 mph100%29.85 "Hg4 mi
5:35 am63 °FFog.8 mph100%29.86 "Hg5 mi
5:15 am63 °FFog.9 mph100%29.88 "Hg4 mi
4:55 am63 °FFog.13 mph100%29.86 "Hg2 mi
4:35 am64 °FFog.15 mph100%29.85 "Hg1 mi
4:15 am64 °FFog.5 mph100%29.78 "Hg1 mi
3:55 am64 °FFog.17 mph100%29.74 "Hg0 mi
3:35 am70 °FMostly cloudy.24 mph88%29.73 "Hg10 mi
3:15 am72 °FMostly cloudy.5 mph100%29.69 "Hg10 mi
2:35 am70 °FClear.6 mph100%29.71 "Hg10 mi
2:15 am72 °FClear.5 mph100%29.71 "Hg10 mi
1:55 am72 °FClear.6 mph100%29.72 "Hg10 mi
12:55 am72 °FClear.8 mph100%29.74 "Hg10 mi
12:35 am72 °FClear.9 mph100%29.75 "Hg10 mi
12:15 am72 °FPassing clouds.9 mph100%29.76 "Hg10 mi
11:55 pm
Sat, Aug 17
72 °FPassing clouds.8 mph100%29.77 "Hg10 mi
11:35 pm72 °FPassing clouds.8 mph100%29.76 "Hg10 mi
11:15 pm72 °FPassing clouds.9 mph100%29.77 "Hg10 mi
Weather by CustomWeather, © 2019

See weather overview